Location: Axtheid
(49.6213°N, 11.8205°E)
Time: 06:07:23
(UTC+00:00)

STARLINK-1074 - Pass Details

Date: 18 February 2020
Orbit: 374 x 385 km, 53.0° (Epoch: 30 March)

Event Time Altitude Azimuth Distance (km) Brightness Sun altitude
Exits shadow 05:34:49 - 243° (WSW) 1,819 5.8 -7.7°
Reaches altitude 10° 05:35:39 10° 243° (WSW) 1,480 5.3 -7.5°
Maximum altitude 05:38:58 82° 157° (SSE) 416 3.1 -7.0°
Drops below altitude 10° 05:42:14 10° 68° (ENE) 1,459 6.8 -6.5°
Sets 05:44:17 0° 68° (ENE) 2,310 7.9 -6.2°
